Year,Month,Day,Hour,Minute,Value (Times are PST for insolation in W/m^2)
2011,05,26,00,00,0.00
2011,05,26,00,01,0.00
2011,05,26,00,02,0.00
2011,05,26,00,03,0.00
2011,05,26,00,04,0.00
2011,05,26,00,05,0.00
2011,05,26,00,06,0.00
2011,05,26,00,07,0.00
2011,05,26,00,08,0.00
2011,05,26,00,09,0.00
2011,05,26,00,10,0.00
2011,05,26,00,11,0.00
2011,05,26,00,12,0.00
2011,05,26,00,13,0.00
2011,05,26,00,14,0.00
2011,05,26,00,15,0.00
2011,05,26,00,16,0.00
2011,05,26,00,17,0.00
2011,05,26,00,18,0.00
2011,05,26,00,19,0.00
2011,05,26,00,20,0.00
2011,05,26,00,21,0.00
2011,05,26,00,22,0.00
2011,05,26,00,23,0.00
2011,05,26,00,24,0.00
2011,05,26,00,25,0.00
2011,05,26,00,26,0.00
2011,05,26,00,27,0.00
2011,05,26,00,28,0.00
2011,05,26,00,29,0.00
2011,05,26,00,30,0.00
2011,05,26,00,31,0.00
2011,05,26,00,32,0.00
2011,05,26,00,33,0.00
2011,05,26,00,34,0.00
2011,05,26,00,35,0.00
2011,05,26,00,36,0.00
2011,05,26,00,37,0.00
2011,05,26,00,38,0.00
2011,05,26,00,39,0.00
2011,05,26,00,40,0.00
2011,05,26,00,41,0.00
2011,05,26,00,42,0.00
2011,05,26,00,43,0.00
2011,05,26,00,44,0.00
2011,05,26,00,45,0.00
2011,05,26,00,46,0.00
2011,05,26,00,47,0.00
2011,05,26,00,48,0.00
2011,05,26,00,49,0.00
2011,05,26,00,50,0.00
2011,05,26,00,51,0.00
2011,05,26,00,52,0.00
2011,05,26,00,53,0.00
2011,05,26,00,54,0.00
2011,05,26,00,55,0.00
2011,05,26,00,56,0.00
2011,05,26,00,57,0.00
2011,05,26,00,58,0.00
2011,05,26,00,59,0.00
2011,05,26,01,00,0.00
2011,05,26,01,01,0.00
2011,05,26,01,02,0.00
2011,05,26,01,03,0.00
2011,05,26,01,04,0.00
2011,05,26,01,05,0.00
2011,05,26,01,06,0.00
2011,05,26,01,07,0.00
2011,05,26,01,08,0.00
2011,05,26,01,09,0.00
2011,05,26,01,10,0.00
2011,05,26,01,11,0.00
2011,05,26,01,12,0.00
2011,05,26,01,13,0.00
2011,05,26,01,14,0.00
2011,05,26,01,15,0.00
2011,05,26,01,16,0.00
2011,05,26,01,17,0.00
2011,05,26,01,18,0.00
2011,05,26,01,19,0.00
2011,05,26,01,20,0.00
2011,05,26,01,21,0.00
2011,05,26,01,22,0.00
2011,05,26,01,23,0.00
2011,05,26,01,24,0.00
2011,05,26,01,25,0.00
2011,05,26,01,26,0.00
2011,05,26,01,27,0.00
2011,05,26,01,28,0.00
2011,05,26,01,29,0.00
2011,05,26,01,30,0.00
2011,05,26,01,31,0.00
2011,05,26,01,32,0.00
2011,05,26,01,33,0.00
2011,05,26,01,34,0.00
2011,05,26,01,35,0.00
2011,05,26,01,36,0.00
2011,05,26,01,37,0.00
2011,05,26,01,38,0.00
2011,05,26,01,39,0.00
2011,05,26,01,40,0.00
2011,05,26,01,41,0.00
2011,05,26,01,42,0.00
2011,05,26,01,43,0.00
2011,05,26,01,44,0.00
2011,05,26,01,45,0.00
2011,05,26,01,46,0.00
2011,05,26,01,47,0.00
2011,05,26,01,48,0.00
2011,05,26,01,49,0.00
2011,05,26,01,50,0.00
2011,05,26,01,51,0.00
2011,05,26,01,52,0.00
2011,05,26,01,53,0.00
2011,05,26,01,54,0.00
2011,05,26,01,55,0.00
2011,05,26,01,56,0.00
2011,05,26,01,57,0.00
2011,05,26,01,58,0.00
2011,05,26,01,59,0.00
2011,05,26,02,00,0.00
2011,05,26,02,01,0.00
2011,05,26,02,02,0.00
2011,05,26,02,03,0.00
2011,05,26,02,04,0.00
2011,05,26,02,05,0.00
2011,05,26,02,06,0.00
2011,05,26,02,07,0.00
2011,05,26,02,08,0.00
2011,05,26,02,09,0.00
2011,05,26,02,10,0.00
2011,05,26,02,11,0.00
2011,05,26,02,12,0.00
2011,05,26,02,13,0.00
2011,05,26,02,14,0.00
2011,05,26,02,15,0.00
2011,05,26,02,16,0.00
2011,05,26,02,17,0.00
2011,05,26,02,18,0.00
2011,05,26,02,19,0.00
2011,05,26,02,20,0.00
2011,05,26,02,21,0.00
2011,05,26,02,22,0.00
2011,05,26,02,23,0.00
2011,05,26,02,24,0.00
2011,05,26,02,25,0.00
2011,05,26,02,26,0.00
2011,05,26,02,27,0.00
2011,05,26,02,28,0.00
2011,05,26,02,29,0.00
2011,05,26,02,30,0.00
2011,05,26,02,31,0.00
2011,05,26,02,32,0.00
2011,05,26,02,33,0.00
2011,05,26,02,34,0.00
2011,05,26,02,35,0.00
2011,05,26,02,36,0.00
2011,05,26,02,37,0.00
2011,05,26,02,38,0.00
2011,05,26,02,39,0.00
2011,05,26,02,40,0.00
2011,05,26,02,41,0.00
2011,05,26,02,42,0.00
2011,05,26,02,43,0.00
2011,05,26,02,44,0.00
2011,05,26,02,45,0.00
2011,05,26,02,46,0.00
2011,05,26,02,47,0.00
2011,05,26,02,48,0.00
2011,05,26,02,49,0.00
2011,05,26,02,50,0.00
2011,05,26,02,51,0.00
2011,05,26,02,52,0.00
2011,05,26,02,53,0.00
2011,05,26,02,54,0.00
2011,05,26,02,55,0.00
2011,05,26,02,56,0.00
2011,05,26,02,57,0.00
2011,05,26,02,58,0.00
2011,05,26,02,59,0.00
2011,05,26,03,00,0.00
2011,05,26,03,01,0.00
2011,05,26,03,02,0.00
2011,05,26,03,03,0.00
2011,05,26,03,04,0.00
2011,05,26,03,05,0.00
2011,05,26,03,06,0.00
2011,05,26,03,07,0.00
2011,05,26,03,08,0.00
2011,05,26,03,09,0.00
2011,05,26,03,10,0.00
2011,05,26,03,11,0.00
2011,05,26,03,12,0.00
2011,05,26,03,13,0.00
2011,05,26,03,14,0.00
2011,05,26,03,15,0.00
2011,05,26,03,16,0.00
2011,05,26,03,17,0.00
2011,05,26,03,18,0.00
2011,05,26,03,19,0.00
2011,05,26,03,20,0.00
2011,05,26,03,21,0.00
2011,05,26,03,22,0.00
2011,05,26,03,23,0.00
2011,05,26,03,24,0.00
2011,05,26,03,25,0.00
2011,05,26,03,26,0.00
2011,05,26,03,27,0.00
2011,05,26,03,28,0.00
2011,05,26,03,29,0.00
2011,05,26,03,30,0.00
2011,05,26,04,20,0.00
2011,05,26,04,21,0.00
2011,05,26,04,22,0.00
2011,05,26,04,23,0.00
2011,05,26,04,24,0.00
2011,05,26,04,25,0.00
2011,05,26,04,26,0.00
2011,05,26,04,27,0.00
2011,05,26,04,28,0.00
2011,05,26,04,29,0.00
2011,05,26,04,30,0.00
2011,05,26,04,31,0.00
2011,05,26,04,32,0.00
2011,05,26,04,33,0.00
2011,05,26,04,34,0.00
2011,05,26,04,35,0.00
2011,05,26,04,36,0.00
2011,05,26,04,37,0.00
2011,05,26,04,38,0.00
2011,05,26,04,39,0.00
2011,05,26,04,40,0.00
2011,05,26,04,41,0.00
2011,05,26,04,42,0.00
2011,05,26,04,43,0.00
2011,05,26,04,44,0.00
2011,05,26,04,45,0.00
2011,05,26,04,46,0.00
2011,05,26,04,47,0.00
2011,05,26,04,48,0.00
2011,05,26,04,49,0.00
2011,05,26,04,50,0.00
2011,05,26,04,51,0.00
2011,05,26,04,52,0.00
2011,05,26,04,53,0.00
2011,05,26,04,54,0.00
2011,05,26,04,55,0.00
2011,05,26,04,56,0.00
2011,05,26,04,57,0.00
2011,05,26,04,58,0.00
2011,05,26,04,59,0.00
2011,05,26,05,00,0.00
2011,05,26,05,01,0.00
2011,05,26,05,02,0.00
2011,05,26,05,03,0.00
2011,05,26,05,04,0.00
2011,05,26,05,05,0.00
2011,05,26,05,06,0.00
2011,05,26,05,07,0.00
2011,05,26,05,08,0.00
2011,05,26,05,09,0.00
2011,05,26,05,10,0.00
2011,05,26,05,11,0.00
2011,05,26,05,12,0.00
2011,05,26,05,13,0.00
2011,05,26,05,14,0.00
2011,05,26,05,15,0.00
2011,05,26,05,16,0.00
2011,05,26,05,17,0.00
2011,05,26,05,18,0.00
2011,05,26,05,19,0.00
2011,05,26,05,20,0.00
2011,05,26,05,21,0.00
2011,05,26,05,22,0.00
2011,05,26,05,23,0.00
2011,05,26,05,24,0.00
2011,05,26,05,25,0.00
2011,05,26,05,26,0.00
2011,05,26,05,27,0.00
2011,05,26,05,28,0.00
2011,05,26,05,29,0.00
2011,05,26,05,30,0.00
2011,05,26,05,31,0.00
2011,05,26,05,32,0.00
2011,05,26,05,33,0.00
2011,05,26,05,34,3.60
2011,05,26,05,35,5.00
2011,05,26,05,36,5.00
2011,05,26,05,37,5.30
2011,05,26,05,38,7.00
2011,05,26,05,39,7.00
2011,05,26,05,40,8.00
2011,05,26,05,41,9.00
2011,05,26,05,42,9.00
2011,05,26,05,43,9.00
2011,05,26,05,44,10.70
2011,05,26,05,45,11.00
2011,05,26,05,46,11.20
2011,05,26,05,47,12.00
2011,05,26,05,48,12.00
2011,05,26,05,49,13.00
2011,05,26,05,50,14.00
2011,05,26,05,51,14.00
2011,05,26,05,52,14.00
2011,05,26,05,53,15.80
2011,05,26,05,54,16.00
2011,05,26,05,55,16.00
2011,05,26,05,56,16.00
2011,05,26,05,57,16.90
2011,05,26,05,58,18.00
2011,05,26,05,59,18.00
2011,05,26,06,00,18.00
2011,05,26,06,01,18.00
2011,05,26,06,02,18.00
2011,05,26,06,03,19.00
2011,05,26,06,04,19.00
2011,05,26,06,05,19.00
2011,05,26,06,06,19.00
2011,05,26,06,07,20.20
2011,05,26,06,08,21.00
2011,05,26,06,09,22.60
2011,05,26,06,10,24.80
2011,05,26,06,11,25.00
2011,05,26,06,12,25.00
2011,05,26,06,13,25.30
2011,05,26,06,14,26.00
2011,05,26,06,15,26.00
2011,05,26,06,16,26.00
2011,05,26,06,17,27.40
2011,05,26,06,18,28.00
2011,05,26,06,19,28.10
2011,05,26,06,20,30.30
2011,05,26,06,21,32.20
2011,05,26,06,22,33.00
2011,05,26,06,23,34.00
2011,05,26,06,24,36.20
2011,05,26,06,25,37.00
2011,05,26,06,26,38.60
2011,05,26,06,27,39.80
2011,05,26,06,28,42.00
2011,05,26,06,29,42.30
2011,05,26,06,30,44.60
2011,05,26,06,31,46.40
2011,05,26,06,32,48.00
2011,05,26,06,33,50.20
2011,05,26,06,34,53.10
2011,05,26,06,35,55.60
2011,05,26,06,36,56.00
2011,05,26,06,37,58.00
2011,05,26,06,38,58.00
2011,05,26,06,39,58.00
2011,05,26,06,40,58.00
2011,05,26,06,41,56.90
2011,05,26,06,42,56.00
2011,05,26,06,43,57.60
2011,05,26,06,44,58.00
2011,05,26,06,45,59.90
2011,05,26,06,46,60.40
2011,05,26,06,47,62.20
2011,05,26,06,48,63.70
2011,05,26,06,49,66.00
2011,05,26,06,50,67.00
2011,05,26,06,51,68.40
2011,05,26,06,52,69.00
2011,05,26,06,53,69.90
2011,05,26,06,54,72.30
2011,05,26,06,55,74.60
2011,05,26,06,56,78.20
2011,05,26,06,57,81.80
2011,05,26,06,58,83.60
2011,05,26,06,59,84.00
2011,05,26,07,00,84.00
2011,05,26,07,01,83.20
2011,05,26,07,02,79.10
2011,05,26,07,03,75.40
2011,05,26,07,04,71.50
2011,05,26,07,05,69.60
2011,05,26,07,06,69.00
2011,05,26,07,07,69.00
2011,05,26,07,08,71.00
2011,05,26,07,09,75.80
2011,05,26,07,10,82.10
2011,05,26,07,11,90.40
2011,05,26,07,12,99.20
2011,05,26,07,13,106.10
2011,05,26,07,14,112.20
2011,05,26,07,15,116.00
2011,05,26,07,16,118.00
2011,05,26,07,17,119.40
2011,05,26,07,18,120.00
2011,05,26,07,19,121.00
2011,05,26,07,20,123.20
2011,05,26,07,21,125.00
2011,05,26,07,22,125.00
2011,05,26,07,23,125.00
2011,05,26,07,24,125.00
2011,05,26,07,25,123.70
2011,05,26,07,26,121.60
2011,05,26,07,27,120.20
2011,05,26,07,28,118.10
2011,05,26,07,29,118.40
2011,05,26,07,30,120.30
2011,05,26,07,31,121.70
2011,05,26,07,32,124.00
2011,05,26,07,33,126.20
2011,05,26,07,34,127.00
2011,05,26,07,35,127.00
2011,05,26,07,36,127.00
2011,05,26,07,37,127.10
2011,05,26,07,38,128.40
2011,05,26,07,39,130.60
2011,05,26,07,40,134.00
2011,05,26,07,41,139.00
2011,05,26,07,42,144.00
2011,05,26,07,43,148.10
2011,05,26,07,44,152.40
2011,05,26,07,45,155.10
2011,05,26,07,46,158.60
2011,05,26,07,47,162.30
2011,05,26,07,48,164.40
2011,05,26,07,49,168.80
2011,05,26,07,50,171.60
2011,05,26,07,51,173.40
2011,05,26,07,52,177.00
2011,05,26,07,53,178.00
2011,05,26,07,54,179.00
2011,05,26,07,55,179.40
2011,05,26,07,56,181.00
2011,05,26,07,57,180.20
2011,05,26,07,58,178.50
2011,05,26,07,59,178.00
2011,05,26,08,00,178.00
2011,05,26,08,01,176.40
2011,05,26,08,02,177.90
2011,05,26,08,03,181.50
2011,05,26,08,04,187.80
2011,05,26,08,05,195.40
2011,05,26,08,06,202.50
2011,05,26,08,07,208.80
2011,05,26,08,08,212.90
2011,05,26,08,09,214.00
2011,05,26,08,10,217.40
2011,05,26,08,11,220.60
2011,05,26,08,12,216.80
2011,05,26,08,13,221.50
2011,05,26,08,14,227.60
2011,05,26,08,15,237.40
2011,05,26,08,16,241.40
2011,05,26,08,17,247.90
2011,05,26,08,18,256.50
2011,05,26,08,19,263.70
2011,05,26,08,20,266.30
2011,05,26,08,21,279.50
2011,05,26,08,22,290.10
2011,05,26,08,23,304.80
2011,05,26,08,24,312.50
2011,05,26,08,25,319.90
2011,05,26,08,26,332.00
2011,05,26,08,27,342.00
2011,05,26,08,28,334.40
2011,05,26,08,29,332.00
2011,05,26,08,30,332.00
2011,05,26,08,31,336.10
2011,05,26,08,32,340.80
2011,05,26,08,33,327.20
2011,05,26,08,34,333.00
2011,05,26,08,35,307.50
2011,05,26,08,36,325.00
2011,05,26,08,37,354.00
2011,05,26,08,38,360.00
2011,05,26,08,39,362.70
2011,05,26,08,40,372.60
2011,05,26,08,41,375.50
2011,05,26,08,42,370.60
2011,05,26,08,43,371.80
2011,05,26,08,44,382.60
2011,05,26,08,45,394.20
2011,05,26,08,46,385.10
2011,05,26,08,47,396.80
2011,05,26,08,48,399.20
2011,05,26,08,49,394.80
2011,05,26,08,50,379.40
2011,05,26,08,51,359.80
2011,05,26,08,52,346.40
2011,05,26,08,53,351.80
2011,05,26,08,54,360.40
2011,05,26,08,55,367.00
2011,05,26,08,56,368.80
2011,05,26,08,57,373.40
2011,05,26,08,58,376.00
2011,05,26,08,59,381.00
2011,05,26,09,00,383.00
2011,05,26,09,01,373.40
2011,05,26,09,02,381.70
2011,05,26,09,03,300.40
2011,05,26,09,04,380.50
2011,05,26,09,05,390.10
2011,05,26,09,06,386.80
2011,05,26,09,07,391.00
2011,05,26,09,08,391.20
2011,05,26,09,09,397.00
2011,05,26,09,10,410.90
2011,05,26,09,11,410.50
2011,05,26,09,12,414.60
2011,05,26,09,13,406.80
2011,05,26,09,14,422.60
2011,05,26,09,15,425.20
2011,05,26,09,16,431.50
2011,05,26,09,17,439.70
2011,05,26,09,18,443.00
2011,05,26,09,19,445.50
2011,05,26,09,20,439.10
2011,05,26,09,21,375.20
2011,05,26,09,22,378.80
2011,05,26,09,23,369.90
2011,05,26,09,24,341.90
2011,05,26,09,25,307.20
2011,05,26,09,26,286.30
2011,05,26,09,27,277.40
2011,05,26,09,28,265.70
2011,05,26,09,29,256.10
2011,05,26,09,30,251.00
2011,05,26,09,31,253.40
2011,05,26,09,32,262.30
2011,05,26,09,33,267.00
2011,05,26,09,34,267.00
2011,05,26,09,35,272.20
2011,05,26,09,36,287.60
2011,05,26,09,37,385.00
2011,05,26,09,38,390.40
2011,05,26,09,39,392.00
2011,05,26,09,40,433.60
2011,05,26,09,41,496.00
2011,05,26,09,42,467.20
2011,05,26,09,43,448.00
2011,05,26,09,44,448.00
2011,05,26,09,45,448.00
2011,05,26,09,46,678.40
2011,05,26,09,47,673.00
2011,05,26,09,48,603.00
2011,05,26,09,49,446.00
2011,05,26,09,50,437.20
2011,05,26,09,51,457.00
2011,05,26,09,52,457.00
2011,05,26,09,53,457.00
2011,05,26,09,54,478.10
2011,05,26,09,55,543.80
2011,05,26,09,56,475.50
2011,05,26,09,57,435.80
2011,05,26,09,58,378.90
2011,05,26,09,59,366.00
2011,05,26,10,00,360.80
2011,05,26,10,01,365.10
2011,05,26,10,02,373.30
2011,05,26,10,03,374.90
2011,05,26,10,04,383.00
2011,05,26,10,05,383.00
2011,05,26,10,06,383.00
2011,05,26,10,07,383.00
2011,05,26,10,08,520.40
2011,05,26,10,09,600.80
2011,05,26,10,10,596.00
2011,05,26,10,11,423.20
2011,05,26,10,12,367.20
2011,05,26,10,13,365.50
2011,05,26,10,14,406.60
2011,05,26,10,15,375.90
2011,05,26,10,16,404.50
2011,05,26,10,17,420.60
2011,05,26,10,18,423.50
2011,05,26,10,19,418.00
2011,05,26,10,20,406.00
2011,05,26,10,21,450.70
2011,05,26,10,22,451.50
2011,05,26,10,23,417.90
2011,05,26,10,24,401.00
2011,05,26,10,25,401.00
2011,05,26,10,26,406.20
2011,05,26,10,27,416.00
2011,05,26,10,28,418.00
2011,05,26,10,29,499.70
2011,05,26,10,30,475.60
2011,05,26,10,31,526.80
2011,05,26,10,32,511.20
2011,05,26,10,33,507.80
2011,05,26,10,34,498.50
2011,05,26,10,35,496.00
2011,05,26,10,36,667.60
2011,05,26,10,37,696.70
2011,05,26,10,38,478.90
2011,05,26,10,39,455.50
2011,05,26,10,40,440.40
2011,05,26,10,41,451.50
2011,05,26,10,42,493.40
2011,05,26,10,43,477.40
2011,05,26,10,44,435.50
2011,05,26,10,45,413.60
2011,05,26,10,46,402.40
2011,05,26,10,47,395.50
2011,05,26,10,48,389.40
2011,05,26,10,49,388.00
2011,05,26,10,50,390.00
2011,05,26,10,51,405.00
2011,05,26,10,52,481.50
2011,05,26,10,53,506.00
2011,05,26,10,54,506.00
2011,05,26,10,55,498.30
2011,05,26,10,56,478.50
2011,05,26,10,57,423.50
2011,05,26,10,58,375.40
2011,05,26,10,59,350.00
2011,05,26,11,00,342.80
2011,05,26,11,01,341.00
2011,05,26,11,02,345.20
2011,05,26,11,03,356.80
2011,05,26,11,04,364.00
2011,05,26,11,05,365.40
2011,05,26,11,06,371.80
2011,05,26,11,07,390.70
2011,05,26,11,08,427.40
2011,05,26,11,09,459.10
2011,05,26,11,10,466.00
2011,05,26,11,11,545.20
2011,05,26,11,12,580.00
2011,05,26,11,13,527.60
2011,05,26,11,14,347.40
2011,05,26,11,15,305.90
2011,05,26,11,16,270.50
2011,05,26,11,17,239.40
2011,05,26,11,18,218.00
2011,05,26,11,19,207.20
2011,05,26,11,20,204.20
2011,05,26,11,21,206.00
2011,05,26,11,22,205.50
2011,05,26,11,23,205.90
2011,05,26,11,24,206.80
2011,05,26,11,25,200.00
2011,05,26,11,26,195.70
2011,05,26,11,27,198.00
2011,05,26,11,28,206.20
2011,05,26,11,29,208.10
2011,05,26,11,30,234.00
2011,05,26,11,31,257.90
2011,05,26,11,32,281.20
2011,05,26,11,33,300.50
2011,05,26,11,34,314.40
2011,05,26,11,35,315.90
2011,05,26,11,36,304.60
2011,05,26,11,37,287.40
2011,05,26,11,38,260.20
2011,05,26,11,39,234.50
2011,05,26,11,40,218.00
2011,05,26,11,41,211.90
2011,05,26,11,42,222.40
2011,05,26,11,43,244.90
2011,05,26,11,44,268.80
2011,05,26,11,45,271.50
2011,05,26,11,46,261.60
2011,05,26,11,47,244.10
2011,05,26,11,48,234.80
2011,05,26,11,49,234.70
2011,05,26,11,50,248.00
2011,05,26,11,51,267.20
2011,05,26,11,52,287.30
2011,05,26,11,53,309.20
2011,05,26,11,54,340.00
2011,05,26,11,55,358.80
2011,05,26,11,56,382.90
2011,05,26,11,57,386.00
2011,05,26,11,58,362.90
2011,05,26,11,59,348.60
2011,05,26,12,00,354.10
2011,05,26,12,01,365.00
2011,05,26,12,02,395.90
2011,05,26,12,03,375.00
2011,05,26,12,04,369.00
2011,05,26,12,05,384.00
2011,05,26,12,06,399.90
2011,05,26,12,07,416.30
2011,05,26,12,08,413.00
2011,05,26,12,09,408.50
2011,05,26,12,10,457.40
2011,05,26,12,11,518.50
2011,05,26,12,12,433.80
2011,05,26,12,13,380.20
2011,05,26,12,14,344.00
2011,05,26,12,15,315.40
2011,05,26,12,16,298.00
2011,05,26,12,17,286.80
2011,05,26,12,18,281.60
2011,05,26,12,19,284.40
2011,05,26,12,20,286.80
2011,05,26,12,21,277.00
2011,05,26,12,22,259.80
2011,05,26,12,23,234.20
2011,05,26,12,24,203.40
2011,05,26,12,25,171.70
2011,05,26,12,26,145.10
2011,05,26,12,27,137.00
2011,05,26,12,28,117.40
2011,05,26,12,29,109.00
2011,05,26,12,30,108.20
2011,05,26,12,31,116.50
2011,05,26,12,32,133.50
2011,05,26,12,33,153.00
2011,05,26,12,34,171.60
2011,05,26,12,35,189.60
2011,05,26,12,36,206.20
2011,05,26,12,37,231.20
2011,05,26,12,38,264.60
2011,05,26,12,39,290.60
2011,05,26,12,40,304.50
2011,05,26,12,41,308.60
2011,05,26,12,42,306.90
2011,05,26,12,43,302.80
2011,05,26,12,44,298.10
2011,05,26,12,45,295.30
2011,05,26,12,46,296.90
2011,05,26,12,47,297.00
2011,05,26,12,48,298.00
2011,05,26,12,49,307.00
2011,05,26,12,50,327.50
2011,05,26,12,51,339.80
2011,05,26,12,52,350.60
2011,05,26,12,53,384.20
2011,05,26,12,54,394.00
2011,05,26,12,55,520.00
2011,05,26,12,56,524.60
2011,05,26,12,57,544.20
2011,05,26,12,58,547.00
2011,05,26,12,59,552.40
2011,05,26,13,00,541.00
2011,05,26,13,01,521.60
2011,05,26,13,02,443.00
2011,05,26,13,03,410.90
2011,05,26,13,04,401.50
2011,05,26,13,05,403.80
2011,05,26,13,06,396.70
2011,05,26,13,07,378.70
2011,05,26,13,08,372.60
2011,05,26,13,09,348.00
2011,05,26,13,10,321.20
2011,05,26,13,11,302.00
2011,05,26,13,12,281.00
2011,05,26,13,13,261.00
2011,05,26,13,14,244.70
2011,05,26,13,15,233.50
2011,05,26,13,16,223.70
2011,05,26,13,17,218.80
2011,05,26,13,18,220.10
2011,05,26,13,19,225.80
2011,05,26,13,20,233.30
2011,05,26,13,21,250.40
2011,05,26,13,22,279.20
2011,05,26,13,23,320.60
2011,05,26,13,24,363.50
2011,05,26,13,25,390.50
2011,05,26,13,26,412.30
2011,05,26,13,27,456.00
2011,05,26,13,28,512.20
2011,05,26,13,29,525.70
2011,05,26,13,30,526.50
2011,05,26,13,31,530.00
2011,05,26,13,32,533.00
2011,05,26,13,33,533.50
2011,05,26,13,34,537.30
2011,05,26,13,35,552.30
2011,05,26,13,36,553.40
2011,05,26,13,37,547.50
2011,05,26,13,38,550.80
2011,05,26,13,39,540.20
2011,05,26,13,40,542.80
2011,05,26,13,41,545.40
2011,05,26,13,42,541.60
2011,05,26,13,43,538.80
2011,05,26,13,44,546.40
2011,05,26,13,45,541.50
2011,05,26,13,46,547.30
2011,05,26,13,47,542.80
2011,05,26,13,48,541.40
2011,05,26,13,49,545.30
2011,05,26,13,50,550.00
2011,05,26,13,51,543.40
2011,05,26,13,52,530.70
2011,05,26,13,53,517.40
2011,05,26,13,54,495.50
2011,05,26,13,55,477.10
2011,05,26,13,56,483.20
2011,05,26,13,57,494.20
2011,05,26,13,58,497.80
2011,05,26,13,59,530.00
2011,05,26,14,00,562.50
2011,05,26,14,01,594.00
2011,05,26,14,02,584.20
2011,05,26,14,03,579.80
2011,05,26,14,04,596.80
2011,05,26,14,05,514.00
2011,05,26,14,06,447.80
2011,05,26,14,07,424.10
2011,05,26,14,08,399.60
2011,05,26,14,09,368.60
2011,05,26,14,10,342.50
2011,05,26,14,11,314.40
2011,05,26,14,12,279.00
2011,05,26,14,13,245.40
2011,05,26,14,14,215.30
2011,05,26,14,15,189.60
2011,05,26,14,16,167.00
2011,05,26,14,17,149.10
2011,05,26,14,18,142.00
2011,05,26,14,19,141.80
2011,05,26,14,20,148.00
2011,05,26,14,21,164.80
2011,05,26,14,22,185.60
2011,05,26,14,23,208.80
2011,05,26,14,24,229.60
2011,05,26,14,25,259.00
2011,05,26,14,26,320.80
2011,05,26,14,27,387.10
2011,05,26,14,28,406.00
2011,05,26,14,29,413.40
2011,05,26,14,30,546.00
2011,05,26,14,31,494.00
2011,05,26,14,32,475.20
2011,05,26,14,33,468.00
2011,05,26,14,34,463.10
2011,05,26,14,35,478.90
2011,05,26,14,36,464.50
2011,05,26,14,37,482.40
2011,05,26,14,38,469.40
2011,05,26,14,39,545.00
2011,05,26,14,40,520.20
2011,05,26,14,41,435.40
2011,05,26,14,42,427.00
2011,05,26,14,43,440.40
2011,05,26,14,44,487.20
2011,05,26,14,45,545.90
2011,05,26,14,46,548.30
2011,05,26,14,47,529.10
2011,05,26,14,48,419.00
2011,05,26,14,49,412.20
2011,05,26,14,50,418.30
2011,05,26,14,51,420.00
2011,05,26,14,52,420.00
2011,05,26,14,53,489.80
2011,05,26,14,54,510.50
2011,05,26,14,55,521.20
2011,05,26,14,56,552.00
2011,05,26,14,57,541.50
2011,05,26,14,58,553.40
2011,05,26,14,59,500.00
2011,05,26,15,00,457.00
2011,05,26,15,01,503.80
2011,05,26,15,02,485.50
2011,05,26,15,03,422.40
2011,05,26,15,04,349.50
2011,05,26,15,05,322.80
2011,05,26,15,06,301.20
2011,05,26,15,07,282.80
2011,05,26,15,08,266.00
2011,05,26,15,09,245.60
2011,05,26,15,10,230.20
2011,05,26,15,11,221.40
2011,05,26,15,12,216.50
2011,05,26,15,13,218.30
2011,05,26,15,14,223.60
2011,05,26,15,15,236.40
2011,05,26,15,16,256.70
2011,05,26,15,17,291.00
2011,05,26,15,18,340.20
2011,05,26,15,19,357.00
2011,05,26,15,20,517.80
2011,05,26,15,21,582.60
2011,05,26,15,22,591.80
2011,05,26,15,23,589.20
2011,05,26,15,24,581.50
2011,05,26,15,25,554.00
2011,05,26,15,26,559.40
2011,05,26,15,27,582.70
2011,05,26,15,28,599.20
2011,05,26,15,29,580.50
2011,05,26,15,30,547.70
2011,05,26,15,31,479.80
2011,05,26,15,32,495.70
2011,05,26,15,33,561.70
2011,05,26,15,34,572.10
2011,05,26,15,35,565.30
2011,05,26,15,36,569.00
2011,05,26,15,37,557.40
2011,05,26,15,38,529.70
2011,05,26,15,39,506.50
2011,05,26,15,40,391.50
2011,05,26,15,41,391.50
2011,05,26,15,42,381.60
2011,05,26,15,43,380.00
2011,05,26,15,44,389.80
2011,05,26,15,45,394.00
2011,05,26,15,46,448.00
2011,05,26,15,47,407.50
2011,05,26,15,48,403.00
2011,05,26,15,49,419.80
2011,05,26,15,50,459.00
2011,05,26,15,51,489.50
2011,05,26,15,52,466.70
2011,05,26,15,53,440.10
2011,05,26,15,54,403.40
2011,05,26,15,55,382.30
2011,05,26,15,56,389.40
2011,05,26,15,57,424.80
2011,05,26,15,58,490.00
2011,05,26,15,59,490.00
2011,05,26,16,00,430.00
2011,05,26,16,01,377.50
2011,05,26,16,02,376.00
2011,05,26,16,03,387.80
2011,05,26,16,04,397.50
2011,05,26,16,05,432.00
2011,05,26,16,06,486.30
2011,05,26,16,07,417.00
2011,05,26,16,08,369.00
2011,05,26,16,09,371.40
2011,05,26,16,10,357.30
2011,05,26,16,11,331.60
2011,05,26,16,12,312.60
2011,05,26,16,13,297.70
2011,05,26,16,14,285.40
2011,05,26,16,15,276.10
2011,05,26,16,16,263.60
2011,05,26,16,17,250.20
2011,05,26,16,18,238.90
2011,05,26,16,19,233.20
2011,05,26,16,20,235.40
2011,05,26,16,21,265.40
2011,05,26,16,22,274.60
2011,05,26,16,23,323.00
2011,05,26,16,24,356.90
2011,05,26,16,25,392.00
2011,05,26,16,26,472.60
2011,05,26,16,27,554.70
2011,05,26,16,28,564.00
2011,05,26,16,29,471.30
2011,05,26,16,30,461.00
2011,05,26,16,31,455.60
2011,05,26,16,32,444.70
2011,05,26,16,33,486.00
2011,05,26,16,34,519.50
2011,05,26,16,35,530.50
2011,05,26,16,36,528.50
2011,05,26,16,37,526.20
2011,05,26,16,38,469.40
2011,05,26,16,39,508.30
2011,05,26,16,40,490.70
2011,05,26,16,41,476.90
2011,05,26,16,42,459.80
2011,05,26,16,43,437.80
2011,05,26,16,44,390.70
2011,05,26,16,45,342.90
2011,05,26,16,46,310.50
2011,05,26,16,47,303.90
2011,05,26,16,48,300.40
2011,05,26,16,49,292.20
2011,05,26,16,50,281.80
2011,05,26,16,51,263.50
2011,05,26,16,52,246.60
2011,05,26,16,53,231.20
2011,05,26,16,54,218.20
2011,05,26,16,55,211.50
2011,05,26,16,56,209.00
2011,05,26,16,57,208.50
2011,05,26,16,58,207.00
2011,05,26,16,59,208.60
2011,05,26,17,00,212.00
2011,05,26,17,01,217.80
2011,05,26,17,02,227.00
2011,05,26,17,03,225.60
2011,05,26,17,04,220.90
2011,05,26,17,05,215.70
2011,05,26,17,06,214.00
2011,05,26,17,07,215.40
2011,05,26,17,08,218.90
2011,05,26,17,09,222.90
2011,05,26,17,10,227.70
2011,05,26,17,11,232.80
2011,05,26,17,12,238.30
2011,05,26,17,13,244.50
2011,05,26,17,14,255.40
2011,05,26,17,15,269.80
2011,05,26,17,16,290.00
2011,05,26,17,17,335.50
2011,05,26,17,18,345.60
2011,05,26,17,19,332.00
2011,05,26,17,20,332.00
2011,05,26,17,21,427.40
2011,05,26,17,22,438.10
2011,05,26,17,23,450.00
2011,05,26,17,24,392.20
2011,05,26,17,25,275.50
2011,05,26,17,26,256.90
2011,05,26,17,27,241.90
2011,05,26,17,28,224.20
2011,05,26,17,29,204.70
2011,05,26,17,30,189.50
2011,05,26,17,31,177.00
2011,05,26,17,32,165.70
2011,05,26,17,33,156.00
2011,05,26,17,34,150.50
2011,05,26,17,35,146.80
2011,05,26,17,36,147.40
2011,05,26,17,37,150.30
2011,05,26,17,38,155.80
2011,05,26,17,39,161.40
2011,05,26,17,40,175.40
2011,05,26,17,41,184.60
2011,05,26,17,42,213.00
2011,05,26,17,43,224.10
2011,05,26,17,44,216.10
2011,05,26,17,45,221.00
2011,05,26,17,46,239.40
2011,05,26,17,47,243.60
2011,05,26,17,48,237.00
2011,05,26,17,49,236.20
2011,05,26,17,50,238.20
2011,05,26,17,51,251.40
2011,05,26,17,52,265.10
2011,05,26,17,53,267.10